Weather History for Michigan City, IN

Change the Weather History Date:

Saturday, December 28, 2013

  Actual Average (KVPZ) Record (KVPZ)
Temperature  
Mean Temperature 42 °F 25 °F  
Max Temperature 50 °F 32 °F 48 °F (2003)
Min Temperature 33 °F 18 °F 7 °F (1999)
Degree Days  
Heating Degree Days 24 40  
Month to date heating degree days 1023  
Since 1 July heating degree days 2281  
Cooling Degree Days 0 0  
Month to date cooling degree days 0  
Year to date cooling degree days 713  
Moisture  
Dew Point 30 °F    
Average Humidity 68    
Maximum Humidity 87    
Minimum Humidity 50    
Precipitation  
Precipitation 0.00 in 0.06 in 0.33 in (2004)
Month to date precipitation 1.97  
Year to date precipitation 37.30  
Sea Level Pressure  
Sea Level Pressure 30.02 in    
Wind  
Wind Speed 11 mph (SSW)    
Max Wind Speed 17 mph    
Max Gust Speed 26 mph    
Visibility 10 miles    
Events      
T = Trace of Precipitation, MM = Missing Value Source: NWS Daily Summary

Daily Weather History Graph

Daily Weather History Graph

Search for Another Location

Airport:

Trip Planner

Search our weather history database for the weather conditions in past years. The results will help you decide how hot, cold, wet, or windy it might be!

Date:

Astronomy

Dec. 28, 2013 Rise Set
Actual Time 7:13 AM CST 4:24 PM CST
Civil Twilight 6:42 AM CST 4:55 PM CST
Nautical Twilight 6:07 AM CST 5:30 PM CST
Astronomical Twilight 5:33 AM CST 6:04 PM CST
Moon 2:48 AM CST (12/28) 1:16 PM CST (12/28)
Length of Visible Light 10h 13m
Length of Day
9h 10m
Waning Crescent, 19% of the Moon is Illuminated
Dec 28
Waning Crescent
Jan 1
New
Jan 7
First Quarter
Jan 15
Full
Jan 23
Last Quarter

Hourly Weather History & Observations

Time (CST) Temp. Windchill Dew Point Humidity Pressure Visibility Wind Dir Wind Speed Gust Speed Precip Events Conditions
12:15 AM 39.2 °F 30.5 °F 28.4 °F 65% 30.09 in 10.0 mi SW 16.1 mph 23.0 mph N/A   Clear
12:35 AM 39.2 °F 30.8 °F 28.4 °F 65% 30.09 in 10.0 mi SW 15.0 mph 19.6 mph N/A   Clear
12:55 AM 39.2 °F 31.6 °F 28.4 °F 65% 30.09 in 10.0 mi SW 12.7 mph 20.7 mph N/A   Clear
1:15 AM 39.2 °F 31.6 °F 28.4 °F 65% 30.10 in 10.0 mi SW 12.7 mph 18.4 mph N/A   Clear
1:35 AM 39.2 °F 32.0 °F 28.4 °F 65% 30.09 in 10.0 mi SW 11.5 mph 17.3 mph N/A   Clear
1:55 AM 37.4 °F 29.8 °F 28.4 °F 70% 30.10 in 10.0 mi SW 11.5 mph - N/A   Clear
2:15 AM 37.4 °F 31.4 °F 28.4 °F 70% 30.10 in 10.0 mi SW 8.1 mph - N/A   Clear
2:35 AM 37.4 °F 31.4 °F 28.4 °F 70% 30.10 in 10.0 mi SW 8.1 mph - N/A   Clear
2:55 AM 35.6 °F 29.2 °F 30.2 °F 81% 30.10 in 10.0 mi SW 8.1 mph - N/A   Clear
3:15 AM 35.6 °F 30.7 °F 28.4 °F 75% 30.10 in 10.0 mi WSW 5.8 mph - N/A   Clear
3:35 AM 35.6 °F 30.7 °F 28.4 °F 75% 30.09 in 10.0 mi WSW 5.8 mph - N/A   Clear
3:55 AM 35.6 °F 31.7 °F 28.4 °F 75% 30.10 in 10.0 mi SSW 4.6 mph - N/A   Clear
4:15 AM 33.8 °F 27.7 °F 28.4 °F 81% 30.10 in 10.0 mi SW 6.9 mph - N/A   Clear
4:35 AM 35.6 °F 28.6 °F 30.2 °F 81% 30.10 in 10.0 mi SW 9.2 mph - N/A   Clear
4:55 AM 35.6 °F 29.9 °F 30.2 °F 81% 30.10 in 10.0 mi SW 6.9 mph - N/A   Clear
5:15 AM 35.6 °F 29.9 °F 30.2 °F 81% 30.10 in 10.0 mi SW 6.9 mph - N/A   Clear
5:35 AM 35.6 °F 29.2 °F 30.2 °F 81% 30.10 in 10.0 mi SW 8.1 mph - N/A   Clear
5:55 AM 35.6 °F 29.9 °F 30.2 °F 81% 30.11 in 10.0 mi SSW 6.9 mph - N/A   Clear
6:15 AM 33.8 °F 27.7 °F 28.4 °F 81% 30.11 in 10.0 mi SSW 6.9 mph - N/A   Clear
6:35 AM 33.8 °F 26.4 °F 28.4 °F 81% 30.11 in 10.0 mi SSW 9.2 mph - N/A   Clear
6:55 AM 33.8 °F 26.4 °F 30.2 °F 87% 30.11 in 10.0 mi SSW 9.2 mph - N/A   Clear
7:15 AM 33.8 °F 27.7 °F 28.4 °F 81% 30.10 in 10.0 mi SSW 6.9 mph - N/A   Clear
7:35 AM 33.8 °F 29.6 °F 28.4 °F 81% 30.10 in 10.0 mi South 4.6 mph - N/A   Clear
7:55 AM 33.8 °F 29.6 °F 28.4 °F 81% 30.10 in 10.0 mi SSW 4.6 mph - N/A   Clear
8:15 AM 35.6 °F 30.7 °F 30.2 °F 81% 30.10 in 10.0 mi SSW 5.8 mph - N/A   Clear
8:35 AM 35.6 °F 29.9 °F 30.2 °F 81% 30.09 in 10.0 mi SSW 6.9 mph - N/A   Clear
8:55 AM 37.4 °F 32.8 °F 30.2 °F 75% 30.09 in 10.0 mi SSW 5.8 mph - N/A   Clear
9:15 AM 39.2 °F 33.0 °F 30.2 °F 70% 30.09 in 10.0 mi SSW 9.2 mph - N/A   Clear
9:35 AM 39.2 °F 32.0 °F 30.2 °F 70% 30.09 in 10.0 mi SSW 11.5 mph - N/A   Clear
9:55 AM 41.0 °F 35.8 °F 30.2 °F 65% 30.09 in 10.0 mi South 8.1 mph - N/A   Clear
10:15 AM 41.0 °F 35.2 °F 30.2 °F 65% 30.08 in 10.0 mi South 9.2 mph - N/A   Clear
10:35 AM 42.8 °F 36.6 °F 32.0 °F 66% 30.08 in 10.0 mi SSW 11.5 mph - N/A   Clear
10:55 AM 42.8 °F 36.6 °F 32.0 °F 66% 30.07 in 10.0 mi SSW 11.5 mph - N/A   Clear
11:15 AM 44.6 °F 39.7 °F 32.0 °F 61% 30.05 in 10.0 mi SSW 9.2 mph - N/A   Clear
11:35 AM 44.6 °F 39.2 °F 32.0 °F 61% 30.04 in 10.0 mi SSW 10.4 mph 19.6 mph N/A   Clear
11:55 AM 44.6 °F 38.4 °F 32.0 °F 61% 30.03 in 10.0 mi South 12.7 mph 17.3 mph N/A   Clear
12:15 PM 44.6 °F 39.7 °F 32.0 °F 61% 30.01 in 10.0 mi South 9.2 mph 19.6 mph N/A   Clear
12:35 PM 46.4 °F 41.5 °F 32.0 °F 57% 30.00 in 10.0 mi South 10.4 mph 18.4 mph N/A   Clear
12:55 PM 46.4 °F 40.7 °F 32.0 °F 57% 29.99 in 10.0 mi SSW 12.7 mph 18.4 mph N/A   Clear
1:15 PM 46.4 °F 40.1 °F 32.0 °F 57% 30.00 in 10.0 mi SSW 15.0 mph 21.9 mph N/A   Clear
1:35 PM 48.2 °F - 32.0 °F 54% 30.00 in 10.0 mi South 13.8 mph 18.4 mph N/A   Clear
1:55 PM 48.2 °F - 32.0 °F 54% 29.99 in 10.0 mi South 11.5 mph 19.6 mph N/A   Clear
2:15 PM 50.0 °F - 32.0 °F 50% 29.99 in 10.0 mi South 11.5 mph 18.4 mph N/A   Clear
2:35 PM 48.2 °F - 32.0 °F 54% 29.99 in 10.0 mi SSW 17.3 mph 23.0 mph N/A   Clear
2:55 PM 46.4 °F 40.7 °F 32.0 °F 57% 29.99 in 10.0 mi SSW 12.7 mph 21.9 mph N/A   Clear
3:15 PM 46.4 °F 41.1 °F 32.0 °F 57% 29.98 in 10.0 mi South 11.5 mph 18.4 mph N/A   Clear
3:35 PM 46.4 °F 41.1 °F 32.0 °F 57% 29.98 in 10.0 mi South 11.5 mph 17.3 mph N/A   Clear
3:55 PM 46.4 °F 41.5 °F 32.0 °F 57% 29.98 in 10.0 mi South 10.4 mph - N/A   Clear
4:15 PM 44.6 °F 39.7 °F 32.0 °F 61% 29.97 in 10.0 mi SSW 9.2 mph 16.1 mph N/A   Clear
4:35 PM 44.6 °F 39.2 °F 32.0 °F 61% 29.96 in 10.0 mi SSW 10.4 mph - N/A   Clear
4:55 PM 42.8 °F 37.0 °F 32.0 °F 66% 29.97 in 10.0 mi South 10.4 mph - N/A   Clear
5:15 PM 44.6 °F 38.4 °F 32.0 °F 61% 29.97 in 10.0 mi SSW 12.7 mph - N/A   Clear
5:35 PM 42.8 °F 36.6 °F 32.0 °F 66% 29.97 in 10.0 mi SSW 11.5 mph - N/A   Clear
5:55 PM 42.8 °F 36.6 °F 32.0 °F 66% 29.96 in 10.0 mi SSW 11.5 mph 18.4 mph N/A   Clear
6:15 PM 42.8 °F 35.8 °F 32.0 °F 66% 29.95 in 10.0 mi South 13.8 mph 19.6 mph N/A   Clear
6:35 PM 42.8 °F 36.2 °F 32.0 °F 66% 29.95 in 10.0 mi SSW 12.7 mph 20.7 mph N/A   Clear
6:55 PM 42.8 °F 35.8 °F 32.0 °F 66% 29.94 in 10.0 mi SSW 13.8 mph 26.5 mph N/A   Clear
7:15 PM 42.8 °F 35.4 °F 32.0 °F 66% 29.94 in 10.0 mi SSW 15.0 mph 21.9 mph N/A   Clear
7:35 PM 41.0 °F 32.8 °F 30.2 °F 65% 29.94 in 10.0 mi SSW 16.1 mph 25.3 mph N/A   Clear
7:55 PM 41.0 °F 33.5 °F 30.2 °F 65% 29.93 in 10.0 mi SSW 13.8 mph 21.9 mph N/A   Clear
8:15 PM 41.0 °F 32.8 °F 30.2 °F 65% 29.92 in 10.0 mi SSW 16.1 mph 24.2 mph N/A   Clear
8:35 PM 41.0 °F 32.8 °F 30.2 °F 65% 29.92 in 10.0 mi SSW 16.1 mph 24.2 mph N/A   Clear
8:55 PM 41.0 °F 33.5 °F 30.2 °F 65% 29.91 in 10.0 mi SSW 13.8 mph 21.9 mph N/A   Clear
9:15 PM 41.0 °F 32.8 °F 30.2 °F 65% 29.91 in 10.0 mi SSW 16.1 mph 24.2 mph N/A   Clear
9:35 PM 41.0 °F 33.5 °F 30.2 °F 65% 29.90 in 10.0 mi SSW 13.8 mph 19.6 mph N/A   Clear
9:55 PM 39.2 °F 30.8 °F 30.2 °F 70% 29.89 in 10.0 mi SSW 15.0 mph 24.2 mph N/A   Clear
10:15 PM 39.2 °F 31.2 °F 30.2 °F 70% 29.88 in 10.0 mi SSW 13.8 mph 19.6 mph N/A   Clear
10:35 PM 39.2 °F 31.6 °F 30.2 °F 70% 29.88 in 10.0 mi SSW 12.7 mph 18.4 mph N/A   Clear
10:55 PM 37.4 °F 29.8 °F 30.2 °F 75% 29.87 in 10.0 mi SSW 11.5 mph 19.6 mph N/A   Clear
11:15 PM 37.4 °F 30.3 °F 30.2 °F 75% 29.87 in 10.0 mi SSW 10.4 mph - N/A   Clear
11:35 PM 37.4 °F 29.8 °F 28.4 °F 70% 29.86 in 10.0 mi SSW 11.5 mph 16.1 mph N/A   Clear
11:55 PM 37.4 °F 30.3 °F 28.4 °F 70% 29.86 in 10.0 mi SSW 10.4 mph 17.3 mph N/A   Clear